Estherville, IA

6:43 AM CDT on May 29, 2017 (GMT -0500)
Estherville Municipal

Weather History for KEST - September, 2013

Change the Weather History Date:

Monday, September 30, 2013

  Actual Average Record
Temperature  
Mean Temperature 67 °F 55 °F  
Max Temperature 82 °F 67 °F 90 °F (1952)
Min Temperature 52 °F 42 °F 27 °F (1956)
Degree Days  
Heating Degree Days 0 11  
Month to date heating degree days 103 175  
Since 1 July heating degree days 148 208  
Cooling Degree Days 2 1  
Month to date cooling degree days 118 47  
Year to date cooling degree days 712 587  
Growing Degree Days 18 (Base 50)    
Moisture  
Dew Point 49 °F    
Average Humidity 57    
Maximum Humidity 83    
Minimum Humidity 31    
Precipitation  
Precipitation 0.00 in 0.07 in 2.58 in (1977)
Month to date precipitation 0.57 3.28  
Sea Level Pressure  
Sea Level Pressure 29.70 in    
Wind  
Wind Speed 15 mph (SSW)    
Max Wind Speed 25 mph    
Max Gust Speed 33 mph    
Visibility 10 miles    
Events      
T = Trace of Precipitation, MM = Missing Value Source: NWS Daily Summary

Daily Weather History Graph

Daily Weather History Graph

Search for Another Location

Airport or City:

Trip Planner

Search our weather history database for the weather conditions in past years. The results will help you decide how hot, cold, wet, or windy it might be!

Date:

Astronomy

Sep. 30, 2013 Rise Set
Actual Time 7:15 AM CDT 7:01 PM CDT
Civil Twilight 6:47 AM CDT 7:29 PM CDT
Nautical Twilight 6:13 AM CDT 8:02 PM CDT
Astronomical Twilight 5:40 AM CDT 8:36 PM CDT
Moon 2:46 AM CDT (9/30) 4:38 PM CDT (9/30)
Length of Visible Light 12h 42m
Length of Day
11h 45m
Waning Crescent, 19% of the Moon is Illuminated
Sep 30
Waning Crescent
Oct 4
New
Oct 11
First Quarter
Oct 18
Full
Oct 26
Last Quarter

Hourly Weather History & Observations

Time (CDT) Temp. Dew Point Humidity Pressure Visibility Wind Dir Wind Speed Gust Speed Precip Events Conditions
12:52 AM 55.9 °F 45.0 °F 67% 29.80 in 10.0 mi South 13.8 mph 20.7 mph N/A   Clear
1:52 AM 55.9 °F 45.0 °F 67% 29.80 in 10.0 mi South 15.0 mph - N/A   Clear
2:52 AM 55.9 °F 46.0 °F 69% 29.78 in 10.0 mi South 13.8 mph - N/A   Clear
3:52 AM 54.0 °F 46.0 °F 75% 29.77 in 10.0 mi South 15.0 mph - N/A   Clear
4:52 AM 53.1 °F 46.9 °F 80% 29.76 in 10.0 mi South 12.7 mph - N/A   Clear
5:52 AM 53.1 °F 48.0 °F 83% 29.75 in 10.0 mi South 12.7 mph - N/A   Clear
6:52 AM 53.1 °F 48.0 °F 83% 29.73 in 10.0 mi South 16.1 mph 23.0 mph N/A   Clear
7:52 AM 53.1 °F 48.0 °F 83% 29.73 in 10.0 mi South 13.8 mph - N/A   Clear
8:52 AM 55.9 °F 48.9 °F 77% 29.72 in 10.0 mi South 16.1 mph 25.3 mph N/A   Clear
9:52 AM 63.0 °F 48.9 °F 60% 29.72 in 10.0 mi SSW 17.3 mph 25.3 mph N/A   Clear
10:52 AM 68.0 °F 48.9 °F 50% 29.70 in 10.0 mi SSW 16.1 mph 29.9 mph N/A   Clear
11:52 AM 73.0 °F 48.9 °F 42% 29.68 in 10.0 mi South 24.2 mph 31.1 mph N/A   Clear
12:52 PM 75.9 °F 48.9 °F 38% 29.67 in 10.0 mi SSW 20.7 mph 31.1 mph N/A   Clear
1:52 PM 79.0 °F 48.9 °F 35% 29.65 in 10.0 mi South 21.9 mph 29.9 mph N/A   Clear
2:52 PM 81.0 °F 48.9 °F 33% 29.63 in 10.0 mi SSW 17.3 mph 27.6 mph N/A   Clear
3:52 PM 82.0 °F 48.0 °F 30% 29.62 in 10.0 mi SSW 21.9 mph 27.6 mph N/A   Clear
4:52 PM 81.0 °F 48.0 °F 31% 29.62 in 10.0 mi SSW 21.9 mph 29.9 mph N/A   Clear
5:52 PM 79.0 °F 48.9 °F 35% 29.63 in 10.0 mi SSW 17.3 mph 31.1 mph N/A   Clear
6:52 PM 75.0 °F 50.0 °F 41% 29.64 in 10.0 mi South 11.5 mph - N/A   Clear
7:52 PM 69.1 °F 50.0 °F 51% 29.66 in 10.0 mi South 8.1 mph - N/A   Clear
8:52 PM 64.9 °F 51.1 °F 61% 29.68 in 10.0 mi South 9.2 mph - N/A   Clear
9:52 PM 64.0 °F 52.0 °F 65% 29.68 in 10.0 mi South 9.2 mph - N/A   Clear
10:52 PM 63.0 °F 52.0 °F 67% 29.68 in 10.0 mi South 9.2 mph - N/A   Clear
11:52 PM 62.1 °F 52.0 °F 70% 29.67 in 10.0 mi South 10.4 mph - N/A   Clear